Hourly Data Report for October 02, 2017

All times are specified in Local Standard Time (LST). Add 1 hour to adjust for Daylight Saving Time where and when it is observed.

NORTH BAY A
ONTARIO

46°21'50.000" N
79°25'27.000" W
370.30 m
6085680
71731
YYB

Download Data

Hourly Data (October 2017)
Hourly Data Report for October 2, 2017
Temp Definition
°C
Dew Point Temp Definition
°C
Rel Hum Definition
%
Wind Dir Definition
10's deg

Wind Spd Definition
km/h
Visibility Definition
km
Stn Press Definition
kPa
Hmdx Definition


Wind Chill Definition


Weather Definition


TIME
00:00 Legend Double Dagger 5.6 4.7 94   0 4.8 98.29     Fog
01:00 Legend Double Dagger 4.9 3.9 93 33 4 16.1 98.32     LegendNANA
02:00 Legend Double Dagger 5.1 4.1 93 13 4 6.4 98.32     Fog
03:00 Legend Double Dagger 7.3 6.6 95 10 8 LegendMM 98.33     LegendNANA
04:00 Legend Double Dagger 6.0 5.3 95 10 8 6.4 98.36     Fog
05:00 Legend Double Dagger 6.1 5.4 95 8 11 16.1 98.40     LegendNANA
06:00 Legend Double Dagger 6.9 6.0 94 9 11 16.1 98.43     LegendNANA
07:00 Legend Double Dagger 6.9 6.0 94 11 9 16.1 98.46     LegendNANA
08:00 Legend Double Dagger 9.6 7.5 87 12 9 16.1 98.49     LegendNANA
09:00 Legend Double Dagger 12.0 5.5 64 14 9 16.1 98.56     LegendNANA
10:00 Legend Double Dagger 13.8 4.7 54 17 17 16.1 98.55     LegendNANA
11:00 Legend Double Dagger 15.4 6.5 55 18 13 16.1 98.54     LegendNANA
12:00 Legend Double Dagger 16.8 5.1 46 13 13 16.1 98.50     LegendNANA
13:00 Legend Double Dagger 17.9 4.4 40 15 13 16.1 98.49     LegendNANA
14:00 Legend Double Dagger 18.2 4.2 39 19 9 16.1 98.47     LegendNANA
15:00 Legend Double Dagger 18.0 3.7 38 20 13 16.1 98.43     LegendNANA
16:00 Legend Double Dagger 16.7 5.2 46 19 9 16.1 98.37     LegendNANA
17:00 Legend Double Dagger 17.1 4.8 44 20 8 16.1 98.41     LegendNANA
18:00 Legend Double Dagger 14.8 5.6 54 18 9 16.1 98.44     LegendNANA
19:00 Legend Double Dagger 13.4 4.6 55 16 9 16.1 98.45     LegendNANA
20:00 Legend Double Dagger 11.6 5.7 67 15 11 16.1 98.44     LegendNANA
21:00 Legend Double Dagger 13.2 3.7 52 17 17 16.1 98.49     LegendNANA
22:00 Legend Double Dagger 12.6 4.3 57 16 17 16.1 98.48     LegendNANA
23:00 Legend Double Dagger 11.7 5.2 64 17 13 16.1 98.47     LegendNANA

Notes on Data Quality.

Legend

  • E = Estimated
  • M = Missing
  • NA = Not Available
  • ‡ = Partner data that is not subject to review by the National Climate Archives
Date modified: